Location: B?dargowo
(53.3916°N, 14.4413°E)
Time: 04:03:19
(UTC+00:00)

Lacrosse 4 Rocket - Pass Details

Date: 05 February 2023
Orbit: 536 x 608 km, 68.0° (Epoch: 24 March)

Event Time Altitude Azimuth Distance (km) Brightness Sun altitude
Rises 19:11:53 0° 323° (NW) 2,859 5.7 -29.8°
Reaches altitude 10° 19:14:14 10° 329° (NNW) 1,942 4.6 -30.1°
Enters shadow 19:15:49 21° 337° (NNW) 1,361 3.6 -30.3°
